| time (UTC) | temp F | wind direction | speed knots | gust knots | rain 1hr in | rain 24hr in | rain mn in | humidity % | barometer mb |
| 20260508144520 | 54 | 259 | 0.9 | 6.1 | 0.00 | 0.00 | 0.00 | 35 | 1018.8 |
| 20260508143024 | 54 | 147 | 1.7 | 3.5 | 0.00 | 0.00 | 0.00 | 35 | 1018.9 |
| 20260508141518 | 54 | 188 | 0.9 | 2.6 | 0.00 | 0.00 | 0.00 | 38 | 1018.8 |
| 20260508140025 | 52 | 251 | 0.9 | 2.6 | 0.00 | 0.00 | 0.00 | 37 | 1018.9 |
| 20260508134522 | 51 | 263 | 0.9 | 4.3 | 0.00 | 0.00 | 0.00 | 40 | 1018.6 |
| 20260508133012 | 51 | 157 | 0.9 | 2.6 | 0.00 | 0.00 | 0.00 | 42 | 1018.4 |
| 20260508131507 | 50 | 211 | 0.0 | 1.7 | 0.00 | 0.00 | 0.00 | 42 | 1018.4 |
| 20260508130007 | 49 | 211 | 0.0 | 2.6 | 0.00 | 0.00 | 0.00 | 43 | 1018.2 |
| 20260508124507 | 47 | 211 | 0.0 | 0.0 | 0.00 | 0.00 | 0.00 | 47 | 1018.1 |
| 20260508123109 | 45 | 360 | 0.0 | 0.0 | 0.00 | 0.00 | 0.00 | 48 | 1018.1 |
| 20260508121559 | 41 | 211 | 0.0 | 0.0 | 0.00 | 0.00 | 0.00 | 64 | 1018.0 |
| 20260508120056 | 39 | 211 | 0.0 | 0.0 | 0.00 | 0.00 | 0.00 | 66 | 1017.7 |
| 20260508114554 | 37 | 211 | 0.0 | 0.0 | 0.00 | 0.01 | 0.00 | 68 | 1017.4 |
| 20260508113101 | 36 | 211 | 0.0 | 0.0 | 0.00 | 0.01 | 0.00 | 68 | 1017.1 |
| 20260508111551 | 36 | 211 | 0.0 | 0.0 | 0.00 | 0.01 | 0.00 | 68 | 1017.0 |
| 20260508110049 | 36 | 211 | 0.0 | 0.0 | 0.00 | 0.01 | 0.00 | 67 | 1016.8 |
| 20260508104547 | 37 | 211 | 0.0 | 0.0 | 0.00 | 0.03 | 0.00 | 66 | 1016.4 |
| 20260508103048 | 37 | 211 | 0.0 | 0.0 | 0.00 | 0.03 | 0.00 | 66 | 1016.0 |
| 20260508101541 | 38 | 211 | 0.0 | 0.0 | 0.00 | 0.03 | 0.00 | 64 | 1015.6 |
| 20260508100037 | 38 | 211 | 0.0 | 0.9 | 0.00 | 0.03 | 0.00 | 62 | 1015.3 |
| 20260508094551 | 39 | 211 | 0.0 | 1.7 | 0.00 | 0.03 | 0.00 | 63 | 1015.1 |
| 20260508093035 | 40 | 211 | 0.0 | 2.6 | 0.00 | 0.03 | 0.00 | 62 | 1015.0 |
| 20260508091535 | 41 | 234 | 0.0 | 1.7 | 0.00 | 0.03 | 0.00 | 59 | 1015.0 |
| 20260508090027 | 42 | 272 | 0.9 | 6.1 | 0.00 | 0.03 | 0.00 | 57 | 1014.8 |
| 20260508084524 | 43 | 257 | 1.7 | 5.2 | 0.00 | 0.03 | 0.00 | 57 | 1015.0 |
| 20260508083022 | 43 | 326 | 1.7 | 6.1 | 0.00 | 0.03 | 0.00 | 57 | 1014.8 |
| 20260508081549 | 43 | 266 | 0.9 | 7.8 | 0.00 | 0.03 | 0.00 | 58 | 1014.8 |
| 20260508080021 | 43 | 208 | 1.7 | 6.1 | 0.00 | 0.03 | 0.00 | 59 | 1014.4 |
| 20260508074515 | 43 | 251 | 1.7 | 10.4 | 0.00 | 0.04 | 0.00 | 59 | 1014.3 |
| 20260508073014 | 44 | 253 | 1.7 | 7.0 | 0.00 | 0.04 | 0.00 | 59 | 1014.0 |
| 20260508071526 | 44 | 245 | 2.6 | 6.1 | 0.00 | 0.04 | 0.00 | 60 | 1013.8 |
| 20260508070008 | 44 | 292 | 4.3 | 7.0 | 0.00 | 0.04 | 0.00 | 61 | 1013.7 |
| 20260508064510 | 44 | 236 | 2.6 | 7.8 | 0.00 | 0.04 | 0.00 | 62 | 1013.9 |
| 20260508063014 | 45 | 249 | 2.6 | 8.7 | 0.00 | 0.04 | 0.00 | 64 | 1013.8 |
| 20260508061601 | 45 | 224 | 1.7 | 9.6 | 0.00 | 0.04 | 0.00 | 64 | 1013.8 |
| 20260508060105 | 45 | 258 | 1.7 | 7.0 | 0.00 | 0.04 | 0.00 | 64 | 1013.9 |
| 20260508054557 | 45 | 265 | 1.7 | 8.7 | 0.00 | 0.04 | 0.00 | 66 | 1014.1 |
| 20260508053058 | 46 | 269 | 1.7 | 7.8 | 0.00 | 0.04 | 0.00 | 66 | 1014.1 |
| 20260508051555 | 46 | 264 | 3.5 | 7.0 | 0.00 | 0.04 | 0.00 | 65 | 1014.0 |
| 20260508050050 | 46 | 254 | 1.7 | 6.1 | 0.00 | 0.04 | 0.00 | 65 | 1013.9 |
| 20260508044548 | 46 | 306 | 2.6 | 9.6 | 0.00 | 0.04 | 0.00 | 65 | 1013.5 |
| 20260508043048 | 46 | 235 | 3.5 | 8.7 | 0.00 | 0.04 | 0.00 | 65 | 1013.2 |
| 20260508041544 | 46 | 251 | 2.6 | 8.7 | 0.00 | 0.04 | 0.00 | 65 | 1013.3 |
| 20260508040046 | 46 | 264 | 1.7 | 8.7 | 0.00 | 0.04 | 0.00 | 66 | 1013.1 |
| 20260508034539 | 46 | 188 | 1.7 | 7.0 | 0.00 | 0.04 | 0.04 | 66 | 1013.2 |
| 20260508033036 | 46 | 267 | 2.6 | 7.0 | 0.00 | 0.04 | 0.04 | 66 | 1013.3 |
| 20260508031536 | 46 | 248 | 1.7 | 7.0 | 0.00 | 0.04 | 0.04 | 65 | 1013.4 |
| 20260508030034 | 47 | 269 | 1.7 | 7.8 | 0.00 | 0.04 | 0.04 | 64 | 1013.4 |
| 20260508024545 | 47 | 246 | 2.6 | 7.8 | 0.00 | 0.07 | 0.04 | 63 | 1013.2 |
| 20260508023032 | 47 | 264 | 2.6 | 7.0 | 0.00 | 0.07 | 0.04 | 64 | 1013.4 |
| 20260508021529 | 46 | 259 | 2.6 | 5.2 | 0.00 | 0.07 | 0.04 | 64 | 1013.3 |
| 20260508020028 | 47 | 278 | 1.7 | 4.3 | 0.00 | 0.07 | 0.04 | 64 | 1012.9 |
| 20260508014529 | 47 | 250 | 1.7 | 4.3 | 0.00 | 0.08 | 0.04 | 63 | 1012.7 |
| 20260508013024 | 47 | 279 | 0.9 | 4.3 | 0.00 | 0.08 | 0.04 | 63 | 1012.2 |
| 20260508011525 | 47 | 281 | 1.7 | 6.1 | 0.00 | 0.08 | 0.04 | 63 | 1012.0 |
| 20260508010031 | 47 | 271 | 0.9 | 3.5 | 0.00 | 0.08 | 0.04 | 62 | 1011.5 |
| 20260508004518 | 48 | 265 | 0.9 | 8.7 | 0.00 | 0.08 | 0.04 | 61 | 1011.3 |
| 20260508003016 | 48 | 254 | 2.6 | 7.8 | 0.00 | 0.08 | 0.04 | 60 | 1011.1 |
| 20260508001515 | 49 | 20 | 3.5 | 9.6 | 0.00 | 0.08 | 0.04 | 59 | 1011.1 |
| 20260508000012 | 49 | 360 | 3.5 | 14.8 | 0.00 | 0.08 | 0.04 | 58 | 1010.8 |
| 20260507234514 | 50 | 280 | 3.5 | 13.9 | 0.00 | 0.08 | 0.04 | 56 | 1010.7 |
| 20260507233020 | 51 | 285 | 2.6 | 10.4 | 0.00 | 0.08 | 0.04 | 56 | 1010.7 |
| 20260507231503 | 52 | 281 | 3.5 | 12.2 | 0.00 | 0.08 | 0.04 | 57 | 1010.8 |
| 20260507230004 | 52 | 96 | 5.2 | 18.2 | 0.00 | 0.08 | 0.04 | 57 | 1010.5 |
| 20260507224502 | 53 | 288 | 4.3 | 13.9 | 0.00 | 0.08 | 0.04 | 58 | 1010.4 |
| 20260507223002 | 53 | 283 | 4.3 | 12.2 | 0.00 | 0.08 | 0.04 | 58 | 1010.1 |
| 20260507221600 | 54 | 271 | 3.5 | 12.2 | 0.00 | 0.08 | 0.04 | 59 | 1009.8 |
| 20260507220100 | 54 | 312 | 4.3 | 9.6 | 0.00 | 0.08 | 0.04 | 60 | 1009.8 |
| 20260507214607 | 51 | 245 | 1.7 | 11.3 | 0.00 | 0.08 | 0.04 | 65 | 1009.9 |
| 20260507213057 | 53 | 28 | 2.6 | 9.6 | 0.00 | 0.08 | 0.04 | 63 | 1009.7 |
| 20260507211551 | 57 | 271 | 4.3 | 9.6 | 0.00 | 0.08 | 0.04 | 59 | 1009.3 |
| 20260507210058 | 61 | 263 | 4.3 | 19.1 | 0.00 | 0.08 | 0.04 | 55 | 1008.8 |
| 20260507204549 | 62 | 260 | 6.1 | 17.4 | 0.00 | 0.08 | 0.04 | 51 | 1008.5 |
| 20260507203103 | 63 | 247 | 3.5 | 9.6 | 0.00 | 0.08 | 0.04 | 54 | 1008.4 |
| 20260507201556 | 63 | 221 | 3.5 | 7.8 | 0.00 | 0.08 | 0.04 | 53 | 1008.3 |
| 20260507200103 | 64 | 262 | 4.3 | 13.0 | 0.00 | 0.08 | 0.04 | 53 | 1008.5 |
| 20260507194545 | 64 | 327 | 7.0 | 14.8 | 0.00 | 0.08 | 0.04 | 53 | 1008.6 |
| 20260507193047 | 65 | 241 | 4.3 | 16.5 | 0.00 | 0.08 | 0.04 | 50 | 1008.8 |
| 20260507191541 | 66 | 246 | 3.5 | 9.6 | 0.00 | 0.08 | 0.04 | 52 | 1008.5 |
| 20260507190040 | 67 | 182 | 2.6 | 10.4 | 0.00 | 0.08 | 0.04 | 50 | 1009.0 |
| 20260507184543 | 67 | 252 | 4.3 | 11.3 | 0.00 | 0.08 | 0.04 | 51 | 1008.9 |
| 20260507183038 | 67 | 284 | 6.1 | 11.3 | 0.00 | 0.08 | 0.04 | 51 | 1008.9 |
| 20260507181537 | 68 | 304 | 3.5 | 7.8 | 0.00 | 0.08 | 0.04 | 51 | 1008.8 |
| 20260507180039 | 68 | 248 | 4.3 | 11.3 | 0.00 | 0.08 | 0.04 | 49 | 1008.6 |
| 20260507174538 | 68 | 308 | 4.3 | 11.3 | 0.00 | 0.08 | 0.04 | 52 | 1008.7 |
| 20260507173036 | 68 | 254 | 3.5 | 8.7 | 0.00 | 0.08 | 0.04 | 51 | 1008.7 |
| 20260507171534 | 69 | 265 | 4.3 | 8.7 | 0.00 | 0.08 | 0.04 | 51 | 1008.7 |
| 20260507170033 | 68 | 347 | 1.7 | 7.8 | 0.00 | 0.08 | 0.04 | 49 | 1008.6 |
| 20260507164528 | 67 | 271 | 2.6 | 6.1 | 0.00 | 0.08 | 0.04 | 53 | 1008.9 |
| 20260507163025 | 66 | 301 | 1.7 | 3.5 | 0.00 | 0.08 | 0.04 | 58 | 1009.0 |
| 20260507161523 | 63 | 321 | 0.9 | 2.6 | 0.00 | 0.08 | 0.04 | 61 | 1009.3 |
| 20260507160022 | 64 | 328 | 0.0 | 1.7 | 0.00 | 0.08 | 0.04 | 61 | 1009.1 |
| 20260507154519 | 63 | 66 | 0.0 | 2.6 | 0.00 | 0.08 | 0.04 | 64 | 1009.0 |
| 20260507153019 | 62 | 294 | 0.0 | 2.6 | 0.00 | 0.08 | 0.04 | 65 | 1009.3 |
| 20260507151518 | 63 | 297 | 0.0 | 3.5 | 0.00 | 0.08 | 0.04 | 61 | 1009.1 |
| 20260507150023 | 63 | 293 | 0.0 | 2.6 | 0.00 | 0.08 | 0.04 | 62 | 1009.2 |